Simultaneous Nadir Overpasses (SNOs) Predictions

Prediction of SNOs between FY3D and NOAA-19 Satellite Orbit:

Table of predicted SNOs for the next 14.0 days since TLE Epoch: 6/1/2024
Index Date (FY3D) Time (FY3D) Lat,Lon (FY3D) SZA (FY3D ) Date (NOAA-19) Time (NOAA-19) Lat,Lon (NOAA-19) SZA (NOAA-19 ) Distance(km) Time Diff (sec)
1 06/01/2024 11:54:00 -76.07,-179.88 126.16 06/01/2024 11:52:47 -76.09,-179.78 126.15 2.74 73
2 06/01/2024 12:44:46 76.09, -12.62 53.85 06/01/2024 12:43:41 76.08, -12.55 53.84 2.58 65
3 06/01/2024 13:35:31 -76.09, 154.71 126.16 06/01/2024 13:34:45 -76.09, 154.73 126.16 0.55 46
4 06/01/2024 14:26:17 76.10, -38.04 53.85 06/01/2024 14:25:39 76.08, -38.03 53.83 2.97 38
5 06/01/2024 15:17:02 -76.10, 129.29 126.16 06/01/2024 15:16:43 -76.09, 129.23 126.17 2.01 19
6 06/01/2024 16:07:48 76.11, -63.46 53.86 06/01/2024 16:07:36 76.12, -63.36 53.86 2.71 12
7 06/01/2024 16:58:33 -76.11, 103.87 126.16 06/01/2024 16:58:40 -76.13, 103.91 126.14 2.38 7
8 06/01/2024 17:49:19 76.13, -88.88 53.86 06/01/2024 17:49:34 76.12, -88.85 53.85 1.02 15
9 06/01/2024 18:40:04 -76.12, 78.45 126.15 06/01/2024 18:40:38 -76.13, 78.42 126.15 1.15 34
10 06/01/2024 19:30:50 76.14,-114.30 53.86 06/01/2024 19:31:32 76.12,-114.34 53.85 2.25 42
11 06/01/2024 20:21:35 -76.13, 53.03 126.15 06/01/2024 20:22:36 -76.13, 52.93 126.15 2.80 61
12 06/01/2024 21:12:21 76.15,-139.72 53.87 06/01/2024 21:13:29 76.16,-139.66 53.88 2.18 68
13 06/01/2024 22:03:18 -76.68, 25.59 125.59 06/01/2024 22:04:22 -76.65, 29.47 125.64 99.43 64



Historial Predications of SNOs between FY3D and NOAA-19
